Regional Weather Roundup
Issued by NWS Newport/Morehead, NC

Current Version | Previous Version | Text Only | Print | Product List | Glossary On
Versions: 1 2 3 4 5 6 7 8 9 10 11 12 13 14 15 16 17 18 19 20 21 22 23 24 25 26 27 28 29 30 31 32 33 34 35 36 37 38 39 40 41 42 43 44 45 46 47 48 49 50
000
ASUS42 KMHX 300022
RWRMHX
WEATHER ROUNDUP FOR EASTERN NORTH CAROLINA
NATIONAL WEATHER SERVICE NEWPORT/MOREHEAD CITY NC
800 PM EDT TUE JUL 29 2014

NOTE: "FAIR" INDICATES FEW OR NO CLOUDS BELOW 12,000 FEET
WITH NO SIGNIFICANT WEATHER AND/OR OBSTRUCTIONS TO VISIBILITY

NCZ015>017-031-032-045>047-102-103-300100-
NORTH COAST

CITY           SKY/WX    TMP DP  RH WIND       PRES   REMARKS
EDENTON        CLEAR     73  66  77 E3        29.95S
ELIZABETH CITY CLEAR     73  62  68 E9        29.96R
KITTY HAWK     CLEAR     73  63  70 NE5       29.95R
MANTEO         NOT AVBL

$$

NCZ045>047-081-094-103-104-300100-
CENTRAL COAST

CITY           SKY/WX    TMP DP  RH WIND       PRES   REMARKS
FRISCO         PTCLDY    75  66  73 NE8       29.94R
SWANQUARTER      N/A     75 N/A N/A NE2       29.91S

$$

NCZ095-097-098-100-101-300100-
SOUTHERN COAST

CITY           SKY/WX    TMP DP  RH WIND       PRES   REMARKS
BEAUFORT       PTCLDY    78  69  73 NE6       29.92R
CEDAR ISLAND     N/A     77 N/A N/A NE12G18   29.97S
JACKSONVILLE   CLEAR     79  64  60 N8        29.92R
NEWPORT        NOT AVBL
PINEY ISLAND   CLOUDY    79  70  74 NE13      29.93R
WILMINGTON     PTCLDY    80  69  69 SE3       29.92R


$$

NCZ011>013-027>030-043-044-078>080-089-090>093-098-300100-
COASTAL PLAIN

CITY           SKY/WX    TMP DP  RH WIND       PRES   REMARKS
AHOSKIE        CLEAR     71  63  75 CALM      29.96S
CLINTON        MOCLDY    77  64  63 CALM      29.94S
ELIZABETHTOWN  MOCLDY    79  63  58 CALM      29.93R
GOLDSBORO      CLEAR     76  64  66 NE8       29.93R
GREENVILLE     CLEAR     73  63  68 CALM      29.96S
HAVELOCK       PTCLDY    79  65  62 N12G18    29.93R
KENANSVILLE    CLOUDY    76  61  60 CALM      29.95R
KINSTON        CLEAR     75  61  60 N3        29.95R
NEW BERN       CLEAR     78  64  61 NE8       29.94R
RICHLANDS      PTCLDY    75  61  60 N5        29.94R
ROANOKE RAPIDS NOT AVBL
ROCKY MOUNT    CLEAR     74  62  66 CALM      29.95S
WASHINGTON     CLEAR     74  61  65 CALM      29.95S
WHITEVILLE     CLEAR     77  67  71 CALM      29.92R

$$

AMZ130-135-150-152-154-156-158-170-250-252-270-ANZ085-086-088-633-658-670-300100-
MARINE OBSERVATIONS

STATION/POSITION TIME  TEMP    WIND        PRES    WAVE   SWELL
                       AIR SEA DIR/SP/G            HT/PER HT/PER
                 (UTC) (F)     (DEG/KT/KT) (MB)    (FT/S) (FT/S)
CHESAPEAKE LIGHT NOT AVBL
BUOY 44014       0000   74 79   10/ 10/ 12 1014.0    2/ 8   2/ 8
DUCK             0000   74 73   40/ 11/ 12 1013.5
2E DUCK          0000                        N/A     3/ 8
OREGON INLET     0000   74 78   20/ 10/ 15 1014.0
BUOY 44095       0000      79                N/A     3/ 8
20E OREGON INLET NOT AVBL
HATTERAS CG      0000   76 82   50/  7/ 14 1014.0
DIAMOND BUOY     0000          VRB 16/ 19  1013.0    4/ 8   2/ 8
CAPE LOOKOUT     0000   78      60/ 14/ 16 1013.1
BEAUFORT LAB     0000   78 83   70/  7/ 10 1012.6
30 SE NEW RIVER  0000   79 81   90/ 10/ 14 1013.1    3/ 6   2/ 6
5 SE WRIGHTSVILL 0000   77 82  170/  6/  6   N/A
BUOY 41002       NOT AVBL
BUOY 41004       0000   82 84   50/  8/ 10 1012.1    2/ 5   2/ 5

$$



USA.gov is the U.S. government's official web portal to all federal, state and local government web resources and services.